User: anonymous   Login
Location: ?astrovice
(49.6513°N, 14.9287°E)
Time: 21:18:50
(UTC+00:00)
Language:

STARLINK-1244 - Orbit

View from above orbital plane
View from above orbital plane
View from above satellite
View from above satellite

Ground track
Ground track

The orbit data is extracted from the following two-line orbital elements,

1 45196U 20012U   20185.66668981 -.00034110  00000-0 -23313-2 0  9991
2 45196  53.0002   1.7607 0001328 111.9372 338.2600 15.05609336 21199
Epoch (UTC): 03 July 2020 16:00:02
Eccentricity: 0.0001328
inclination: 53.0002°
perigee height: 549 km
apogee height: 550 km
right ascension of ascending node: 1.7607°
argument of perigee: 111.9372°
revolutions per day: 15.05609336
mean anomaly at epoch: 338.2600°
orbit number at epoch: 2119

The dashed part of the orbit path shows where the satellite is in the earth's shadow,  

DLR